• în Republica Moldova
  • Lista ţărilor
  • Pe 7 zile
  • Temperatura apei
  • Hartă satelitară
  • Meteo pe hartă
  • Widget-uri
  • user-avatar
    Intrare

    Meteo pe oră la Prutz

    Astăzi, 17 Octombrie, Marţi

    Timp Temperatura Precipitaţii Vânt Presiune Umiditate
    00:00 +9°C° 0 mm 1 m/s 640 mmHg 51%
    01:00 +9°C° 0 mm 1 m/s 640 mmHg 47%
    02:00 +9°C° 0 mm 1 m/s 640 mmHg 47%
    03:00 +8°C° 0 mm 1 m/s 640 mmHg 47%
    04:00 +8°C° 0 mm 1 m/s 639 mmHg 48%
    05:00 +8°C° 0 mm 1 m/s 639 mmHg 47%
    06:00 +8°C° 0 mm 1 m/s 639 mmHg 46%
    07:00 +8°C° 0 mm 1 m/s 639 mmHg 46%
    08:00 +11°C° 0 mm 1 m/s 640 mmHg 42%
    09:00 +14°C° 0 mm 1 m/s 641 mmHg 38%
    10:00 +18°C° 0 mm 1 m/s 642 mmHg 34%
    11:00 +19°C° 0 mm 1 m/s 642 mmHg 32%
    12:00 +20°C° 0 mm 1 m/s 642 mmHg 30%
    13:00 +20°C° 0 mm 1 m/s 642 mmHg 29%
    14:00 +19°C° 0 mm 1 m/s 641 mmHg 36%
    15:00 +18°C° 0 mm 1 m/s 640 mmHg 42%
    16:00 +16°C° 0 mm 1 m/s 640 mmHg 49%
    17:00 +14°C° 0 mm 1 m/s 639 mmHg 52%
    18:00 +12°C° 0 mm 2 m/s 638 mmHg 55%
    19:00 +9°C° 0 mm 2 m/s 637 mmHg 58%
    20:00 +8°C° 0 mm 2 m/s 637 mmHg 58%
    21:00 +8°C° 0 mm 2 m/s 637 mmHg 57%
    22:00 +7°C° 0 mm 2 m/s 637 mmHg 57%
    23:00 +7°C° 0 mm 2 m/s 636 mmHg 56%

    Mâine, 18 Octombrie, Miercuri

    Timp Temperatura Precipitaţii Vânt Presiune Umiditate
    00:00 +7°C° 0 mm 2 m/s 636 mmHg 55%
    01:00 +7°C° 0 mm 2 m/s 636 mmHg 54%
    02:00 +6°C° 0 mm 2 m/s 636 mmHg 52%
    03:00 +6°C° 0 mm 2 m/s 635 mmHg 50%
    04:00 +6°C° 0 mm 2 m/s 635 mmHg 49%
    05:00 +6°C° 0 mm 2 m/s 635 mmHg 47%
    06:00 +6°C° 0 mm 2 m/s 635 mmHg 45%
    07:00 +7°C° 0 mm 1 m/s 634 mmHg 43%
    08:00 +9°C° 0 mm 1 m/s 635 mmHg 40%
    09:00 +12°C° 0 mm 1 m/s 636 mmHg 37%
    10:00 +15°C° 0 mm 1 m/s 637 mmHg 33%
    11:00 +15°C° 0 mm 1 m/s 637 mmHg 33%
    12:00 +16°C° 0 mm 1 m/s 637 mmHg 32%
    13:00 +17°C° 0 mm 2 m/s 636 mmHg 32%
    14:00 +16°C° 0 mm 1 m/s 636 mmHg 38%
    15:00 +15°C° 0 mm 1 m/s 636 mmHg 43%
    16:00 +14°C° 0 mm 1 m/s 635 mmHg 49%
    17:00 +12°C° 0 mm 1 m/s 634 mmHg 56%
    18:00 +10°C° 0 mm 1 m/s 634 mmHg 64%
    19:00 +7°C° 0 mm 1 m/s 633 mmHg 72%
    20:00 +7°C° 0 mm 1 m/s 633 mmHg 71%
    21:00 +6°C° 0 mm 2 m/s 633 mmHg 70%
    22:00 +6°C° 0 mm 2 m/s 633 mmHg 69%
    23:00 +5°C° 0 mm 2 m/s 633 mmHg 68%

    Poimâine, 19 Octombrie, Joi

    Timp Temperatura Precipitaţii Vânt Presiune Umiditate
    00:00 +5°C° 0 mm 2 m/s 633 mmHg 66%
    01:00 +5°C° 0 mm 2 m/s 633 mmHg 65%
    02:00 +5°C° 0 mm 2 m/s 633 mmHg 63%
    03:00 +5°C° 0 mm 2 m/s 633 mmHg 61%
    04:00 +5°C° 0 mm 2 m/s 633 mmHg 59%
    05:00 +4°C° 0 mm 2 m/s 632 mmHg 57%
    06:00 +4°C° 0 mm 2 m/s 632 mmHg 55%
    07:00 +4°C° 0 mm 2 m/s 632 mmHg 53%
    08:00 +7°C° 0 mm 2 m/s 633 mmHg 47%
    09:00 +11°C° 0 mm 1 m/s 634 mmHg 41%
    10:00 +13°C° 0 mm 1 m/s 635 mmHg 35%
    11:00 +14°C° 0 mm 1 m/s 635 mmHg 34%
    12:00 +15°C° 0 mm 1 m/s 635 mmHg 33%
    13:00 +16°C° 0 mm 1 m/s 635 mmHg 32%
    14:00 +15°C° 0 mm 1 m/s 635 mmHg 39%
    15:00 +14°C° 0 mm 1 m/s 635 mmHg 47%
    16:00 +14°C° 0 mm 1 m/s 634 mmHg 54%
    17:00 +12°C° 0 mm 1 m/s 634 mmHg 60%
    18:00 +10°C° 0 mm 1 m/s 634 mmHg 66%
    19:00 +8°C° 0 mm 1 m/s 633 mmHg 72%
    20:00 +8°C° 0 mm 1 m/s 633 mmHg 71%
    21:00 +8°C° 0 mm 1 m/s 634 mmHg 70%
    22:00 +7°C° 0 mm 2 m/s 634 mmHg 69%
    23:00 +7°C° 0 mm 2 m/s 634 mmHg 70%

    20 Octombrie, Vineri

    Timp Temperatura Precipitaţii Vânt Presiune Umiditate
    00:00 +7°C° 0 mm 2 m/s 634 mmHg 71%
    01:00 +6°C° 0 mm 2 m/s 634 mmHg 72%
    02:00 +6°C° 0 mm 2 m/s 634 mmHg 73%
    03:00 +6°C° 0 mm 2 m/s 633 mmHg 73%
    04:00 +5°C° 0 mm 2 m/s 633 mmHg 74%
    05:00 +5°C° 0 mm 2 m/s 633 mmHg 73%
    06:00 +5°C° 0 mm 2 m/s 634 mmHg 72%
    07:00 +6°C° 0 mm 1 m/s 634 mmHg 72%
    08:00 +9°C° 0 mm 1 m/s 635 mmHg 64%
    09:00 +11°C° 0 mm 1 m/s 636 mmHg 57%
    10:00 +13°C° 0 mm 1 m/s 637 mmHg 50%
    11:00 +14°C° 0 mm 1 m/s 637 mmHg 48%
    12:00 +15°C° 0 mm 1 m/s 637 mmHg 47%
    13:00 +16°C° 0 mm 1 m/s 637 mmHg 45%
    14:00 +15°C° 0 mm 1 m/s 637 mmHg 49%
    15:00 +15°C° 0 mm 1 m/s 636 mmHg 52%
    16:00 +14°C° 0 mm 1 m/s 636 mmHg 56%
    17:00 +12°C° 0 mm 1 m/s 636 mmHg 64%
    18:00 +10°C° 0 mm 1 m/s 635 mmHg 72%
    19:00 +7°C° 0 mm 1 m/s 635 mmHg 81%
    20:00 +7°C° 0 mm 1 m/s 635 mmHg 80%
    21:00 +7°C° 0 mm 1 m/s 635 mmHg 80%
    22:00 +7°C° 0 mm 1 m/s 636 mmHg 79%
    23:00 +7°C° 0 mm 1 m/s 636 mmHg 79%

    21 Octombrie, Sâmbătă

    Timp Temperatura Precipitaţii Vânt Presiune Umiditate
    00:00 +7°C° 0 mm 1 m/s 635 mmHg 78%
    01:00 +6°C° 0 mm 2 m/s 635 mmHg 78%
    02:00 +6°C° 0 mm 2 m/s 635 mmHg 78%
    03:00 +6°C° 0 mm 2 m/s 635 mmHg 78%
    04:00 +7°C° 0 mm 1 m/s 635 mmHg 78%
    05:00 +6°C° 0 mm 2 m/s 635 mmHg 78%
    06:00 +6°C° 0 mm 2 m/s 635 mmHg 77%
    07:00 +5°C° 0 mm 2 m/s 635 mmHg 77%
    08:00 +8°C° 0 mm 2 m/s 636 mmHg 68%
    09:00 +12°C° 0 mm 1 m/s 637 mmHg 60%
    10:00 +14°C° 0 mm 1 m/s 637 mmHg 51%
    11:00 +15°C° 0 mm 1 m/s 637 mmHg 48%
    12:00 +16°C° 0 mm 2 m/s 637 mmHg 46%
    13:00 +17°C° 0 mm 2 m/s 637 mmHg 43%
    14:00 +16°C° 0 mm 2 m/s 637 mmHg 49%
    15:00 +15°C° 0 mm 1 m/s 636 mmHg 56%
    16:00 +14°C° 0 mm 1 m/s 636 mmHg 62%
    17:00 +12°C° 0 mm 1 m/s 635 mmHg 71%
    18:00 +10°C° 0 mm 1 m/s 635 mmHg 79%
    19:00 +8°C° 0 mm 1 m/s 634 mmHg 88%
    20:00 +8°C° 0 mm 1 m/s 634 mmHg 89%
    21:00 +8°C° 0 mm 1 m/s 634 mmHg 91%
    22:00 +8°C° 0 mm 1 m/s 634 mmHg 92%
    23:00 +8°C° 0 mm 1 m/s 634 mmHg 92%

    22 Octombrie, Duminică

    Timp Temperatura Precipitaţii Vânt Presiune Umiditate
    00:00 +8°C° 0 mm 1 m/s 633 mmHg 93%
    01:00 +8°C° 0 mm 1 m/s 633 mmHg 93%
    02:00 +7°C° 0,6 mm 1 m/s 633 mmHg 93%
    03:00 +6°C° 0,6 mm 2 m/s 633 mmHg 94%
    04:00 +6°C° 0,6 mm 2 m/s 633 mmHg 95%
    05:00 +6°C° 1,6 mm 2 m/s 633 mmHg 95%
    06:00 +5°C° 1,6 mm 2 m/s 632 mmHg 96%
    07:00 +5°C° 1,6 mm 2 m/s 632 mmHg 97%
    08:00 +5°C° 1,7 mm 2 m/s 632 mmHg 96%
    09:00 +5°C° 1,7 mm 2 m/s 632 mmHg 96%
    10:00 +4°C° 1,7 mm 2 m/s 632 mmHg 95%
    11:00 +4°C° 1,4 mm 2 m/s 632 mmHg 95%
    12:00 +4°C° 1,4 mm 2 m/s 632 mmHg 94%
    13:00 +3°C° 1,4 mm 3 m/s 631 mmHg 94%
    14:00 +2°C° 1,1 mm 3 m/s 631 mmHg 94%
    15:00 +2°C° 1,1 mm 3 m/s 631 mmHg 93%
    16:00 +1°C° 1,1 mm 3 m/s 632 mmHg 93%
    17:00 +1°C° 0,5 mm 3 m/s 632 mmHg 93%
    18:00 +1°C° 0,5 mm 3 m/s 632 mmHg 94%
    19:00 0°C° 0,5 mm 3 m/s 632 mmHg 94%
    20:00 +1°C° 0,1 mm 2 m/s 633 mmHg 95%
    21:00 -1°C° 0,1 mm 2 m/s 633 mmHg 95%
    22:00 -1°C° 0,1 mm 2 m/s 633 mmHg 96%
    23:00 -2°C° 0,1 mm 2 m/s 633 mmHg 95%
    Arată mai mult